Location: Pachuta
(32.0431°N, 88.8831°W)
Time: 08:54:08
(UTC+00:00)

ISS - Visible Passes

Search period start: 17 April 2021 00:00
Search period end: 27 April 2021 00:00
Orbit: 418 x 422 km, 51.6° (Epoch: 17 April)

Date Brightness Start Highest point End Pass type
(mag) Time Alt. Az. Time Alt. Az. Time Alt. Az.
21 Apr -1.7 10:39:53 10° S 10:42:41 24° SE 10:45:30 10° ENE visible
22 Apr -1.0 09:53:49 10° SSE 09:55:29 13° SE 09:57:10 10° E visible
23 Apr -3.8 10:41:16 10° SW 10:44:37 81° NW 10:48:00 10° NE visible
24 Apr -3.1 09:55:59 30° S 09:57:19 49° SE 10:00:35 10° NE visible
25 Apr -1.7 09:10:45 23° ESE 09:10:45 23° ESE 09:12:53 10° ENE visible
25 Apr -2.2 10:44:01 10° W 10:46:48 23° NW 10:49:36 10° NNE visible
26 Apr -3.0 09:58:24 32° W 09:59:22 40° NW 10:02:35 10° NNE visible
